Weather in Melitopol

Ukraine / Zaporizhia Region     46°50′31″N   35°22′22″E
temp.,
°C
wind,
m/s
gust,
m/s
humid.,
%
clouds,
%
prec.,
mm/h
press.,
hPa
HPBL,
m
5 march, fri
fri523:00+4sw615833 0.0 1015577
02:00+4sw6148624 0.0 1014538
05:00+4sw6139033 0.0 1014440
08:00+6sw5108567 0.0 1013531
11:00+10sw577088 0.0 1013872
14:00+11ssw466594 0.0 1012959
17:00+9s3571100 0.0 1012167
20:00+7sw4774100 0.0 1012133
6 march, sat
sat623:00+6sw4985100 0.0 1011227
02:00+5sw4108898 0.0 1011294
05:00+5wsw51087100 0.0 1011279
08:00+4nnw81081100 0.0 1014710
11:00+4nnw81166100 0.0 1018953
14:00+4nnw81142100 0.0 10191467
17:00+2nnw7103999 0.0 10221399
20:000nnw5105653 0.0 1025526
7 march, sun
sun723:00−1nw37620 0.0 1027284
02:00−2w48590 0.0 1027260
05:00−2w38590 0.0 1027227
08:000w59450 0.0 1027577
11:00+4w710392 0.0 10261729
14:00+5w7103616 0.0 10231693
17:00+3wsw69370 0.0 1022828
20:00+1sw5115417 0.0 1021392
8 march, mon
mon823:000sw614705 0.0 1020516
02:00+1wsw615763 0.0 1019573
05:00+1wsw6158039 0.0 1018470
08:00+4wsw8137355 0.0 1018828
11:00+8wsw8114935 0.0 10171560
14:00+9wsw8104629 0.0 10161919
17:00+7wsw6951100 0.0 1015969
20:00+4wsw61164100 0.0 1016396
9 march, tue
tue923:00+2wsw497599 0.0 1016256
02:00+1wsw348355 0.0 101588
05:000wsw34860 0.0 101574
08:00+3wnw466923 0.0 1015376
11:00+5nw566287 0.0 10161054
14:00+5nw455293 0.0 10171349
17:00+4n454499 0.0 10171476
20:00+1n235677 0.0 101957